Location: Unspecified
(39.0057°N, 0.0000°E)
Time: 11:02:17
(UTC+00:00)

AO-73 - Visible Passes

Search period start: 04 April 2026 00:00
Search period end: 14 April 2026 00:00
Orbit: 515 x 568 km, 97.8° (Epoch: 29 March)

Date Brightness Start Highest point End Pass type
(mag) Time Alt. Az. Time Alt. Az. Time Alt. Az.
4 Apr ? 03:25:04 10° NNE 03:28:42 43° E 03:29:07 41° ESE visible
4 Apr ? 05:01:15 10° NW 05:02:50 12° WNW 05:04:25 10° W visible
5 Apr ? 03:18:08 10° NNE 03:21:39 35° E 03:22:11 33° ESE visible
5 Apr ? 04:53:42 10° NNW 04:55:52 15° WNW 04:57:43 11° W visible
6 Apr ? 03:11:15 10° NE 03:14:34 28° E 03:15:13 27° ESE visible
6 Apr ? 04:46:17 10° NNW 04:48:53 18° WNW 04:50:45 13° WSW visible
7 Apr ? 03:04:22 10° NE 03:07:28 23° E 03:08:14 22° ESE visible
7 Apr ? 04:38:57 10° NNW 04:41:53 21° WNW 04:43:46 15° WSW visible
8 Apr ? 02:57:32 10° NE 03:00:21 19° E 03:01:14 18° ESE visible
8 Apr ? 04:31:39 10° NNW 04:34:50 26° WNW 04:36:46 17° WSW visible
9 Apr ? 02:50:47 10° NE 02:53:12 16° E 02:54:13 15° ESE visible
9 Apr ? 04:24:23 10° N 04:27:47 31° WNW 04:29:45 20° WSW visible
10 Apr ? 02:44:10 10° ENE 02:46:01 13° E 02:47:10 12° ESE visible
10 Apr ? 04:17:07 10° N 04:20:41 38° WNW 04:22:42 22° SW visible
11 Apr ? 02:37:57 10° ENE 02:38:49 11° E 02:39:42 10° ESE visible
11 Apr ? 04:09:53 10° N 04:13:34 48° WNW 04:15:38 23° SW visible
12 Apr ? 04:02:39 10° N 04:06:26 60° WNW 04:08:33 24° SSW visible
13 Apr ? 03:55:26 10° N 03:59:16 75° WNW 04:01:27 25° SSW visible
